This is the latest recevied weather packets stored in our database for station/object SQ9MHX-13. If no packets are shown the sender has not sent any weather packets the latest 10 day(s).
| Time | Temp. | Humidity | Pressure | Rain* | Wind** | Luminosity | Snow |
|---|---|---|---|---|---|---|---|
| 1777383052 | 13.89° C | 23% | 973.8 hPa | - | 0 m/s | - | - |
| 1777382753 | 13.89° C | 22% | 973.1 hPa | - | 0 m/s | - | - |
| 1777382455 | 13.89° C | 23% | 972.7 hPa | - | 0 m/s | - | - |
| 1777381260 | 13.89° C | 23% | 973.2 hPa | - | 0 m/s | - | - |
| 1777380962 | 13.89° C | 22% | 973.4 hPa | - | 0 m/s | - | - |
| 1777380364 | 12.22° C | 25% | 974 hPa | - | 0 m/s | - | - |
| 1777380066 | 12.22° C | 27% | 973.6 hPa | - | 0 m/s | - | - |
| 1777379767 | 12.22° C | 25% | 973.5 hPa | - | 0 m/s | - | - |
| 1777379170 | 12.78° C | 22% | 973.6 hPa | - | 0 m/s | - | - |
| 1777378871 | 13.89° C | 22% | 974 hPa | - | 0 m/s | - | - |
| 1777378572 | 12.22° C | 25% | 974.1 hPa | - | 0 m/s | - | - |
| 1777378274 | 12.78° C | 24% | 973.7 hPa | - | 0 m/s | - | - |
| 1777377677 | 12.22° C | 23% | 974.1 hPa | - | 0 m/s | - | - |
| 1777377378 | 12.78° C | 24% | 974.1 hPa | - | 0 m/s | - | - |
| 1777377079 | 13.89° C | 23% | 974 hPa | - | 0 m/s | - | - |
| 1777376781 | 13.89° C | 21% | 973.3 hPa | - | 0 m/s | - | - |
| 1777376482 | 12.78° C | 24% | 973.7 hPa | - | 0 m/s | - | - |
| 1777376183 | 12.22° C | 23% | 974.1 hPa | - | 0 m/s | - | - |
| 1777375885 | 12.78° C | 22% | 973.7 hPa | - | 0 m/s | - | - |
| 1777375586 | 12.78° C | 23% | 973.1 hPa | - | 0 m/s | - | - |
| 1777375287 | 13.89° C | 22% | 974.2 hPa | - | 0 m/s | - | - |
| 1777374989 | 12.78° C | 24% | 974 hPa | - | 0 m/s | - | - |
| 1777374690 | 12.78° C | 27% | 974.5 hPa | - | 0 m/s | - | - |
| 1777374392 | 12.22° C | 24% | 974.2 hPa | - | 0 m/s | - | - |
| 1777374093 | 12.78° C | 28% | 974.6 hPa | - | 0 m/s | - | - |
* Rain since midnight (hover to see other rain measurements)
** Current wind speed in m/s (hover to see current wind gust speed)